Вернуться в каталог

CZ-6A DEB

АктивенSSO
NORAD 54467·DEBRIS·🇨🇳 China

Запущен Nov 11, 2022 с Taiyuan Satellite Launch Center

Loading…

Ближайшие Пролёты (ближайшие 24 часа)

TLE

СвежийSource: Space-Track

Эпоха: Sep 14, 2026, 02:32 UTC

1 54467U 22151GT  26257.10601436  .00002235  00000-0  59205-3 0  9996
2 54467  98.5981 297.2178 0097514  90.5750 270.6616 14.46973139201521

Отслеживайте CZ-6A DEB в реальном времени с AllMySat

Download on the App Store